Autor Thema: Rückmeldung an HM-PB-2-WM55  (Gelesen 11676 mal)

Offline Markus

  • Sr. Member
  • ****
  • Beiträge: 846
  • No support over PM! Please use the thread ...
Aw: Rückmeldung an HM-PB-2-WM55
« Antwort #15 am: 04 Januar 2013, 09:26:11 »
Hallo Martin sorry das es so lange gedauert hat ab ich hatte ganz schlechten WAF
also hier die versprochene Logdatei.

wenn du sonst noch Daten brauchst einfach kurz melden.

Danke
Markus


2013.01.04 08:45:45.236 1: update check Releases => local: Fhem 5.3 (DEVELOPMENT) remote: Fhem 5.3 (DEVELOPMENT)
2013.01.04 08:45:45.776 1: update saving statefile
2013.01.04 08:57:02.584 1: backup tar: removing leading '/' from member names
2013.01.04 08:57:02.586 1: backup done: FHEM-20130104_084545.tar.gz (18842794 Bytes)
2013.01.04 08:57:15.021 1: update 50 file(s) have been updated.
2013.01.04 08:57:15.025 1: update A new version of fhem.pl was installed, 'shutdown restart' is required!
2013.01.04 08:57:15.408 1: update deleting ./FHEM/OWNet.pm failed: No such file or directory
2013.01.04 08:57:49.179 1: CUNO_HM: A0B61A25819E0D519DA4400B9 -63
2013.01.04 08:57:49.194 1: RCV L:0B N:61 F:A2 CMD:58 SRC:Thermostat_Wohnzimmer DST:Heizkorper_Kuche 00B9 (ClimateEvent CMD:0x00 ValvePos:0xB9) (,WAKEMEUP,BIDI,RPTEN)
2013.01.04 08:57:49.575 1: CUNO_HM: A0E61820219DA4419E0D50101900041 -48.5
2013.01.04 08:57:49.590 1: RCV L:0E N:61 F:82 CMD:02 SRC:Heizkorper_Kuche DST:Thermostat_Wohnzimmer 0101900041 (ACK_STATUS CHANNEL:0x01 STATUS:0x90 UP:0x00 DOWN:0x00 LOWBAT:0x00 RSSI:0x41) (,WAKEMEUP,RPTEN)
2013.01.04 08:57:49.885 1: CUNO_HM: A0C42867019E0DB00000000CC3A -53.5
2013.01.04 08:57:49.899 1: RCV L:0C N:42 F:86 CMD:70 SRC:Thermostat_Vorraum DST:broadcast 00CC3A (WeatherEvent TEMP:0x00CC HUM:0x3A) (,WAKEMEUP,CFG,RPTEN)
2013.01.04 08:57:50.191 1: CUNO_HM: A0B42A25819E0DB19DABC0050 -53.5
2013.01.04 08:57:50.206 1: RCV L:0B N:42 F:A2 CMD:58 SRC:Thermostat_Vorraum DST:HeizkorperVo 0050 (ClimateEvent CMD:0x00 ValvePos:0x50) (,WAKEMEUP,BIDI,RPTEN)
2013.01.04 08:57:50.566 1: CUNO_HM: A0E42820219DABC19E0DB01013E0027 -58.5
2013.01.04 08:57:50.581 1: RCV L:0E N:42 F:82 CMD:02 SRC:HeizkorperVo DST:Thermostat_Vorraum 01013E0027 (ACK_STATUS CHANNEL:0x01 STATUS:0x3E UP:0x00 DOWN:0x00 LOWBAT:0x00 RSSI:0x27) (,WAKEMEUP,RPTEN)
2013.01.04 08:57:50.861 1: CUNO_HM: A0C3C867019E0D700000000D244 -76
2013.01.04 08:57:50.876 1: RCV L:0C N:3C F:86 CMD:70 SRC:ThermostatBad DST:broadcast 00D244 (WeatherEvent TEMP:0x00D2 HUM:0x44) (,WAKEMEUP,CFG,RPTEN)
2013.01.04 08:57:51.162 1: CUNO_HM: A0B3CA25819E0D719DA380000 -75
2013.01.04 08:57:51.182 1: RCV L:0B N:3C F:A2 CMD:58 SRC:ThermostatBad DST:Heizkorper_Bad 0000 (ClimateEvent CMD:0x00 ValvePos:0x00) (,WAKEMEUP,BIDI,RPTEN)
2013.01.04 08:57:51.561 1: CUNO_HM: A0E3C820219DA3819E0D7010100002B -65
2013.01.04 08:57:51.577 1: RCV L:0E N:3C F:82 CMD:02 SRC:Heizkorper_Bad DST:ThermostatBad 010100002B (ACK_STATUS CHANNEL:0x01 STATUS:0x00 UP:0x00 DOWN:0x00 LOWBAT:0x00 RSSI:0x2B) (,WAKEMEUP,RPTEN)
2013.01.04 08:58:04.115 1: CUNO_HM: A0C82867019E0AA00000000C33A -85.5
2013.01.04 08:58:04.131 1: RCV L:0C N:82 F:86 CMD:70 SRC:ThermostatSchlaf DST:broadcast 00C33A (WeatherEvent TEMP:0x00C3 HUM:0x3A) (,WAKEMEUP,CFG,RPTEN)
2013.01.04 08:58:04.423 1: CUNO_HM: A0B82A25819E0AA19DA590000 -87.5
2013.01.04 08:58:04.438 1: RCV L:0B N:82 F:A2 CMD:58 SRC:ThermostatSchlaf DST:HeizkorperSch 0000 (ClimateEvent CMD:0x00 ValvePos:0x00) (,WAKEMEUP,BIDI,RPTEN)
2013.01.04 08:58:04.799 1: CUNO_HM: A0E82820219DA5919E0AA0101000034 -59.5
2013.01.04 08:58:04.813 1: RCV L:0E N:82 F:82 CMD:02 SRC:HeizkorperSch DST:ThermostatSchlaf 0101000034 (ACK_STATUS CHANNEL:0x01 STATUS:0x00 UP:0x00 DOWN:0x00 LOWBAT:0x00 RSSI:0x34) (,WAKEMEUP,RPTEN)
2013.01.04 08:58:05.112 1: CUNO_HM: A0C62867019E0D500000000C63A -63
2013.01.04 08:58:05.127 1: RCV L:0C N:62 F:86 CMD:70 SRC:Thermostat_Wohnzimmer DST:broadcast 00C63A (WeatherEvent TEMP:0x00C6 HUM:0x3A) (,WAKEMEUP,CFG,RPTEN)
2013.01.04 08:58:05.432 1: CUNO_HM: A0B62A25819E0D519DA4400B9 -62.5
2013.01.04 08:58:05.447 1: RCV L:0B N:62 F:A2 CMD:58 SRC:Thermostat_Wohnzimmer DST:Heizkorper_Kuche 00B9 (ClimateEvent CMD:0x00 ValvePos:0xB9) (,WAKEMEUP,BIDI,RPTEN)
2013.01.04 08:58:05.809 1: CUNO_HM: A0E62820219DA4419E0D50101900042 -48.5
2013.01.04 08:58:05.824 1: RCV L:0E N:62 F:82 CMD:02 SRC:Heizkorper_Kuche DST:Thermostat_Wohnzimmer 0101900042 (ACK_STATUS CHANNEL:0x01 STATUS:0x90 UP:0x00 DOWN:0x00 LOWBAT:0x00 RSSI:0x42) (,WAKEMEUP,RPTEN)
2013.01.04 08:58:06.105 1: CUNO_HM: A0C43867019E0DB00000000CC3A -53.5
2013.01.04 08:58:06.120 1: RCV L:0C N:43 F:86 CMD:70 SRC:Thermostat_Vorraum DST:broadcast 00CC3A (WeatherEvent TEMP:0x00CC HUM:0x3A) (,WAKEMEUP,CFG,RPTEN)
2013.01.04 08:58:06.411 1: CUNO_HM: A0C83867019E0AA00000000C43A -87.5
2013.01.04 08:58:06.427 1: RCV L:0C N:83 F:86 CMD:70 SRC:ThermostatSchlaf DST:broadcast 00C43A (WeatherEvent TEMP:0x00C4 HUM:0x3A) (,WAKEMEUP,CFG,RPTEN)
2013.01.04 08:58:19.184 1: CUNO_HM: A0B43A25819E0DB19DABC0050 -53.5
2013.01.04 08:58:19.200 1: RCV L:0B N:43 F:A2 CMD:58 SRC:Thermostat_Vorraum DST:HeizkorperVo 0050 (ClimateEvent CMD:0x00 ValvePos:0x50) (,WAKEMEUP,BIDI,RPTEN)
2013.01.04 08:58:19.572 1: CUNO_HM: A0E43820219DABC19E0DB01013E0027 -58.5
2013.01.04 08:58:19.588 1: RCV L:0E N:43 F:82 CMD:02 SRC:HeizkorperVo DST:Thermostat_Vorraum 01013E0027 (ACK_STATUS CHANNEL:0x01 STATUS:0x3E UP:0x00 DOWN:0x00 LOWBAT:0x00 RSSI:0x27) (,WAKEMEUP,RPTEN)
2013.01.04 08:58:19.868 1: CUNO_HM: A0C3D867019E0D700000000D243 -76
2013.01.04 08:58:19.882 1: RCV L:0C N:3D F:86 CMD:70 SRC:ThermostatBad DST:broadcast 00D243 (WeatherEvent TEMP:0x00D2 HUM:0x43) (,WAKEMEUP,CFG,RPTEN)
2013.01.04 08:58:20.173 1: CUNO_HM: A0B83A25819E0AA19DA590000 -87
2013.01.04 08:58:20.187 1: RCV L:0B N:83 F:A2 CMD:58 SRC:ThermostatSchlaf DST:HeizkorperSch 0000 (ClimateEvent CMD:0x00 ValvePos:0x00) (,WAKEMEUP,BIDI,RPTEN)
2013.01.04 08:58:20.563 1: CUNO_HM: A0E83820219DA5919E0AA0101000034 -59.5
2013.01.04 08:58:20.578 1: RCV L:0E N:83 F:82 CMD:02 SRC:HeizkorperSch DST:ThermostatSchlaf 0101000034 (ACK_STATUS CHANNEL:0x01 STATUS:0x00 UP:0x00 DOWN:0x00 LOWBAT:0x00 RSSI:0x34) (,WAKEMEUP,RPTEN)
2013.01.04 08:58:20.877 1: CUNO_HM: A0B3DA25819E0D719DA380000 -76
2013.01.04 08:58:20.892 1: RCV L:0B N:3D F:A2 CMD:58 SRC:ThermostatBad DST:Heizkorper_Bad 0000 (ClimateEvent CMD:0x00 ValvePos:0x00) (,WAKEMEUP,BIDI,RPTEN)
2013.01.04 08:58:21.270 1: CUNO_HM: A0E3D820219DA3819E0D7010100002B -64.5
2013.01.04 08:58:21.288 1: RCV L:0E N:3D F:82 CMD:02 SRC:Heizkorper_Bad DST:ThermostatBad 010100002B (ACK_STATUS CHANNEL:0x01 STATUS:0x00 UP:0x00 DOWN:0x00 LOWBAT:0x00 RSSI:0x2B) (,WAKEMEUP,RPTEN)
2013.01.04 08:58:21.573 1: CUNO_HM: A0C63867019E0D500000000C63A -63
2013.01.04 08:58:21.588 1: RCV L:0C N:63 F:86 CMD:70 SRC:Thermostat_Wohnzimmer DST:broadcast 00C63A (WeatherEvent TEMP:0x00C6 HUM:0x3A) (,WAKEMEUP,CFG,RPTEN)
2013.01.04 08:58:34.138 1: CUNO_HM: A0C44867019E0DB00000000CC39 -53.5
2013.01.04 08:58:34.154 1: RCV L:0C N:44 F:86 CMD:70 SRC:Thermostat_Vorraum DST:broadcast 00CC39 (WeatherEvent TEMP:0x00CC HUM:0x39) (,WAKEMEUP,CFG,RPTEN)
2013.01.04 08:58:34.462 1: CUNO_HM: A0B63A25819E0D519DA4400B9 -63
2013.01.04 08:58:34.477 1: RCV L:0B N:63 F:A2 CMD:58 SRC:Thermostat_Wohnzimmer DST:Heizkorper_Kuche 00B9 (ClimateEvent CMD:0x00 ValvePos:0xB9) (,WAKEMEUP,BIDI,RPTEN)
2013.01.04 08:58:34.847 1: CUNO_HM: A0E63820219DA4419E0D50101900042 -48.5
2013.01.04 08:58:34.862 1: RCV L:0E N:63 F:82 CMD:02 SRC:Heizkorper_Kuche DST:Thermostat_Wohnzimmer 0101900042 (ACK_STATUS CHANNEL:0x01 STATUS:0x90 UP:0x00 DOWN:0x00 LOWBAT:0x00 RSSI:0x42) (,WAKEMEUP,RPTEN)
2013.01.04 08:58:35.145 1: CUNO_HM: A0B44A25819E0DB19DABC0050 -53.5
2013.01.04 08:58:35.160 1: RCV L:0B N:44 F:A2 CMD:58 SRC:Thermostat_Vorraum DST:HeizkorperVo 0050 (ClimateEvent CMD:0x00 ValvePos:0x50) (,WAKEMEUP,BIDI,RPTEN)
2013.01.04 08:58:35.524 1: CUNO_HM: A0E44820219DABC19E0DB01013E0027 -58.5
2013.01.04 08:58:35.540 1: RCV L:0E N:44 F:82 CMD:02 SRC:HeizkorperVo DST:Thermostat_Vorraum 01013E0027 (ACK_STATUS CHANNEL:0x01 STATUS:0x3E UP:0x00 DOWN:0x00 LOWBAT:0x00 RSSI:0x27) (,WAKEMEUP,RPTEN)
2013.01.04 08:58:35.828 1: CUNO_HM: A0C3E867019E0D700000000D243 -77
2013.01.04 08:58:35.843 1: RCV L:0C N:3E F:86 CMD:70 SRC:ThermostatBad DST:broadcast 00D243 (WeatherEvent TEMP:0x00D2 HUM:0x43) (,WAKEMEUP,CFG,RPTEN)
2013.01.04 08:58:36.148 1: CUNO_HM: A0C84867019E0AA00000000C43A -86.5
2013.01.04 08:58:36.162 1: RCV L:0C N:84 F:86 CMD:70 SRC:ThermostatSchlaf DST:broadcast 00C43A (WeatherEvent TEMP:0x00C4 HUM:0x3A) (,WAKEMEUP,CFG,RPTEN)
2013.01.04 08:58:36.461 1: CUNO_HM: A0B3EA25819E0D719DA380000 -76.5
2013.01.04 08:58:36.476 1: RCV L:0B N:3E F:A2 CMD:58 SRC:ThermostatBad DST:Heizkorper_Bad 0000 (ClimateEvent CMD:0x00 ValvePos:0x00) (,WAKEMEUP,BIDI,RPTEN)
2013.01.04 08:58:49.289 1: CUNO_HM: A0E3E820219DA3819E0D7010100002B -64.5
2013.01.04 08:58:49.305 1: RCV L:0E N:3E F:82 CMD:02 SRC:Heizkorper_Bad DST:ThermostatBad 010100002B (ACK_STATUS CHANNEL:0x01 STATUS:0x00 UP:0x00 DOWN:0x00 LOWBAT:0x00 RSSI:0x2B) (,WAKEMEUP,RPTEN)
2013.01.04 08:58:49.601 1: CUNO_HM: A0B84A25819E0AA19DA590000 -86
2013.01.04 08:58:49.616 1: RCV L:0B N:84 F:A2 CMD:58 SRC:ThermostatSchlaf DST:HeizkorperSch 0000 (ClimateEvent CMD:0x00 ValvePos:0x00) (,WAKEMEUP,BIDI,RPTEN)
2013.01.04 08:58:49.979 1: CUNO_HM: A0E84820219DA5919E0AA0101000034 -59.5
2013.01.04 08:58:49.993 1: RCV L:0E N:84 F:82 CMD:02 SRC:HeizkorperSch DST:ThermostatSchlaf 0101000034 (ACK_STATUS CHANNEL:0x01 STATUS:0x00 UP:0x00 DOWN:0x00 LOWBAT:0x00 RSSI:0x34) (,WAKEMEUP,RPTEN)
2013.01.04 08:58:50.274 1: CUNO_HM: A0C64867019E0D500000000C63A -63
2013.01.04 08:58:50.291 1: RCV L:0C N:64 F:86 CMD:70 SRC:Thermostat_Wohnzimmer DST:broadcast 00C63A (WeatherEvent TEMP:0x00C6 HUM:0x3A) (,WAKEMEUP,CFG,RPTEN)
2013.01.04 08:58:50.580 1: CUNO_HM: A0C45867019E0DB00000000CD39 -53.5
2013.01.04 08:58:50.595 1: RCV L:0C N:45 F:86 CMD:70 SRC:Thermostat_Vorraum DST:broadcast 00CD39 (WeatherEvent TEMP:0x00CD HUM:0x39) (,WAKEMEUP,CFG,RPTEN)
2013.01.04 08:58:50.894 1: CUNO_HM: A0B64A25819E0D519DA4400B9 -62.5
2013.01.04 08:58:50.915 1: RCV L:0B N:64 F:A2 CMD:58 SRC:Thermostat_Wohnzimmer DST:Heizkorper_Kuche 00B9 (ClimateEvent CMD:0x00 ValvePos:0xB9) (,WAKEMEUP,BIDI,RPTEN)
2013.01.04 08:58:51.294 1: CUNO_HM: A0E64820219DA4419E0D50101900041 -48
2013.01.04 08:58:51.310 1: RCV L:0E N:64 F:82 CMD:02 SRC:Heizkorper_Kuche DST:Thermostat_Wohnzimmer 0101900041 (ACK_STATUS CHANNEL:0x01 STATUS:0x90 UP:0x00 DOWN:0x00 LOWBAT:0x00 RSSI:0x41) (,WAKEMEUP,RPTEN)
2013.01.04 08:58:51.600 1: CUNO_HM: A0B45A25819E0DB19DABC0050 -53.5
2013.01.04 08:58:51.614 1: RCV L:0B N:45 F:A2 CMD:58 SRC:Thermostat_Vorraum DST:HeizkorperVo 0050 (ClimateEvent CMD:0x00 ValvePos:0x50) (,WAKEMEUP,BIDI,RPTEN)
2013.01.04 08:59:03.929 1: CUNO_HM: A0E45820219DABC19E0DB01013E0027 -58.5
2013.01.04 08:59:03.945 1: RCV L:0E N:45 F:82 CMD:02 SRC:HeizkorperVo DST:Thermostat_Vorraum 01013E0027 (ACK_STATUS CHANNEL:0x01 STATUS:0x3E UP:0x00 DOWN:0x00 LOWBAT:0x00 RSSI:0x27) (,WAKEMEUP,RPTEN)
2013.01.04 08:59:04.229 1: CUNO_HM: A0C3F867019E0D700000000D143 -76.5
2013.01.04 08:59:04.243 1: RCV L:0C N:3F F:86 CMD:70 SRC:ThermostatBad DST:broadcast 00D143 (WeatherEvent TEMP:0x00D1 HUM:0x43) (,WAKEMEUP,CFG,RPTEN)
2013.01.04 08:59:04.534 1: CUNO_HM: A0B3FA25819E0D719DA380000 -77
2013.01.04 08:59:04.549 1: RCV L:0B N:3F F:A2 CMD:58 SRC:ThermostatBad DST:Heizkorper_Bad 0000 (ClimateEvent CMD:0x00 ValvePos:0x00) (,WAKEMEUP,BIDI,RPTEN)
2013.01.04 08:59:04.910 1: CUNO_HM: A0E3F820219DA3819E0D7010100002B -65
2013.01.04 08:59:04.926 1: RCV L:0E N:3F F:82 CMD:02 SRC:Heizkorper_Bad DST:ThermostatBad 010100002B (ACK_STATUS CHANNEL:0x01 STATUS:0x00 UP:0x00 DOWN:0x00 LOWBAT:0x00 RSSI:0x2B) (,WAKEMEUP,RPTEN)
2013.01.04 08:59:05.224 1: CUNO_HM: A0C85867019E0AA00000000C33B -85.5
2013.01.04 08:59:05.239 1: RCV L:0C N:85 F:86 CMD:70 SRC:ThermostatSchlaf DST:broadcast 00C33B (WeatherEvent TEMP:0x00C3 HUM:0x3B) (,WAKEMEUP,CFG,RPTEN)
2013.01.04 08:59:05.546 1: CUNO_HM: A0B85A25819E0AA19DA590000 -86.5
2013.01.04 08:59:05.561 1: RCV L:0B N:85 F:A2 CMD:58 SRC:ThermostatSchlaf DST:HeizkorperSch 0000 (ClimateEvent CMD:0x00 ValvePos:0x00) (,WAKEMEUP,BIDI,RPTEN)
2013.01.04 08:59:05.927 1: CUNO_HM: A0E85820219DA5919E0AA0101000034 -59.5
2013.01.04 08:59:05.942 1: RCV L:0E N:85 F:82 CMD:02 SRC:HeizkorperSch DST:ThermostatSchlaf 0101000034 (ACK_STATUS CHANNEL:0x01 STATUS:0x00 UP:0x00 DOWN:0x00 LOWBAT:0x00 RSSI:0x34) (,WAKEMEUP,RPTEN)
2013.01.04 08:59:06.227 1: CUNO_HM: A0C65867019E0D500000000C63A -62.5
2013.01.04 08:59:06.241 1: RCV L:0C N:65 F:86 CMD:70 SRC:Thermostat_Wohnzimmer DST:broadcast 00C63A (WeatherEvent TEMP:0x00C6 HUM:0x3A) (,WAKEMEUP,CFG,RPTEN)
2013.01.04 08:59:18.452 1: CUNO_HM: A0B65A25819E0D519DA4400B9 -62.5
2013.01.04 08:59:18.468 1: RCV L:0B N:65 F:A2 CMD:58 SRC:Thermostat_Wohnzimmer DST:Heizkorper_Kuche 00B9 (ClimateEvent CMD:0x00 ValvePos:0xB9) (,WAKEMEUP,BIDI,RPTEN)
2013.01.04 08:59:18.844 1: CUNO_HM: A0E65820219DA4419E0D50101900043 -48
2013.01.04 08:59:18.859 1: RCV L:0E N:65 F:82 CMD:02 SRC:Heizkorper_Kuche DST:Thermostat_Wohnzimmer 0101900043 (ACK_STATUS CHANNEL:0x01 STATUS:0x90 UP:0x00 DOWN:0x00 LOWBAT:0x00 RSSI:0x43) (,WAKEMEUP,RPTEN)
2013.01.04 08:59:19.160 1: CUNO_HM: A0C40867019E0D700000000D143 -77
2013.01.04 08:59:19.174 1: RCV L:0C N:40 F:86 CMD:70 SRC:ThermostatBad DST:broadcast 00D143 (WeatherEvent TEMP:0x00D1 HUM:0x43) (,WAKEMEUP,CFG,RPTEN)
2013.01.04 08:59:19.472 1: CUNO_HM: A0C46867019E0DB00000000CC39 -53.5
2013.01.04 08:59:19.487 1: RCV L:0C N:46 F:86 CMD:70 SRC:Thermostat_Vorraum DST:broadcast 00CC39 (WeatherEvent TEMP:0x00CC HUM:0x39) (,WAKEMEUP,CFG,RPTEN)
2013.01.04 08:59:19.776 1: CUNO_HM: A0B40A25819E0D719DA380000 -76.5
2013.01.04 08:59:19.791 1: RCV L:0B N:40 F:A2 CMD:58 SRC:ThermostatBad DST:Heizkorper_Bad 0000 (ClimateEvent CMD:0x00 ValvePos:0x00) (,WAKEMEUP,BIDI,RPTEN)
2013.01.04 08:59:20.152 1: CUNO_HM: A0E40820219DA3819E0D7010100002B -64.5
2013.01.04 08:59:20.168 1: RCV L:0E N:40 F:82 CMD:02 SRC:Heizkorper_Bad DST:ThermostatBad 010100002B (ACK_STATUS CHANNEL:0x01 STATUS:0x00 UP:0x00 DOWN:0x00 LOWBAT:0x00 RSSI:0x2B) (,WAKEMEUP,RPTEN)
2013.01.04 08:59:20.458 1: CUNO_HM: A0B46A25819E0DB19DABC0050 -53.5
2013.01.04 08:59:20.473 1: RCV L:0B N:46 F:A2 CMD:58 SRC:Thermostat_Vorraum DST:HeizkorperVo 0050 (ClimateEvent CMD:0x00 ValvePos:0x50) (,WAKEMEUP,BIDI,RPTEN)
2013.01.04 08:59:20.857 1: CUNO_HM: A0E46820219DABC19E0DB01013E0027 -58.5
2013.01.04 08:59:20.872 1: RCV L:0E N:46 F:82 CMD:02 SRC:HeizkorperVo DST:Thermostat_Vorraum 01013E0027 (ACK_STATUS CHANNEL:0x01 STATUS:0x3E UP:0x00 DOWN:0x00 LOWBAT:0x00 RSSI:0x27) (,WAKEMEUP,RPTEN)
2013.01.04 08:59:33.109 1: CUNO_HM: A0C86867019E0AA00000000C33B -86
2013.01.04 08:59:33.125 1: RCV L:0C N:86 F:86 CMD:70 SRC:ThermostatSchlaf DST:broadcast 00C33B (WeatherEvent TEMP:0x00C3 HUM:0x3B) (,WAKEMEUP,CFG,RPTEN)
2013.01.04 08:59:33.416 1: CUNO_HM: A0B86A25819E0AA19DA590000 -85.5
2013.01.04 08:59:33.431 1: RCV L:0B N:86 F:A2 CMD:58 SRC:ThermostatSchlaf DST:HeizkorperSch 0000 (ClimateEvent CMD:0x00 ValvePos:0x00) (,WAKEMEUP,BIDI,RPTEN)
2013.01.04 08:59:33.793 1: CUNO_HM: A0E86820219DA5919E0AA0101000034 -59.5
2013.01.04 08:59:33.809 1: RCV L:0E N:86 F:82 CMD:02 SRC:HeizkorperSch DST:ThermostatSchlaf 0101000034 (ACK_STATUS CHANNEL:0x01 STATUS:0x00 UP:0x00 DOWN:0x00 LOWBAT:0x00 RSSI:0x34) (,WAKEMEUP,RPTEN)
2013.01.04 08:59:34.102 1: CUNO_HM: A0C66867019E0D500000000C73A -63
2013.01.04 08:59:34.117 1: RCV L:0C N:66 F:86 CMD:70 SRC:Thermostat_Wohnzimmer DST:broadcast 00C73A (WeatherEvent TEMP:0x00C7 HUM:0x3A) (,WAKEMEUP,CFG,RPTEN)
2013.01.04 08:59:34.424 1: CUNO_HM: A0B66A25819E0D519DA4400B9 -63
2013.01.04 08:59:34.439 1: RCV L:0B N:66 F:A2 CMD:58 SRC:Thermostat_Wohnzimmer DST:Heizkorper_Kuche 00B9 (ClimateEvent CMD:0x00 ValvePos:0xB9) (,WAKEMEUP,BIDI,RPTEN)
2013.01.04 08:59:34.809 1: CUNO_HM: A0E66820219DA4419E0D50101900042 -48
2013.01.04 08:59:34.824 1: RCV L:0E N:66 F:82 CMD:02 SRC:Heizkorper_Kuche DST:Thermostat_Wohnzimmer 0101900042 (ACK_STATUS CHANNEL:0x01 STATUS:0x90 UP:0x00 DOWN:0x00 LOWBAT:0x00 RSSI:0x42) (,WAKEMEUP,RPTEN)
2013.01.04 08:59:35.107 1: CUNO_HM: A0C47867019E0DB00000000CD39 -53.5
2013.01.04 08:59:35.121 1: RCV L:0C N:47 F:86 CMD:70 SRC:Thermostat_Vorraum DST:broadcast 00CD39 (WeatherEvent TEMP:0x00CD HUM:0x39) (,WAKEMEUP,CFG,RPTEN)
2013.01.04 08:59:35.410 1: CUNO_HM: A0C41867019E0D700000000D143 -76.5
2013.01.04 08:59:35.425 1: RCV L:0C N:41 F:86 CMD:70 SRC:ThermostatBad DST:broadcast 00D143 (WeatherEvent TEMP:0x00D1 HUM:0x43) (,WAKEMEUP,CFG,RPTEN)
2013.01.04 08:59:47.664 1: CUNO_HM: A0B47A25819E0DB19DABC0050 -53.5
2013.01.04 08:59:47.680 1: RCV L:0B N:47 F:A2 CMD:58 SRC:Thermostat_Vorraum DST:HeizkorperVo 0050 (ClimateEvent CMD:0x00 ValvePos:0x50) (,WAKEMEUP,BIDI,RPTEN)
2013.01.04 08:59:48.041 1: CUNO_HM: A0E47820219DABC19E0DB01013E0027 -59
2013.01.04 08:59:48.056 1: RCV L:0E N:47 F:82 CMD:02 SRC:HeizkorperVo DST:Thermostat_Vorraum 01013E0027 (ACK_STATUS CHANNEL:0x01 STATUS:0x3E UP:0x00 DOWN:0x00 LOWBAT:0x00 RSSI:0x27) (,WAKEMEUP,RPTEN)
2013.01.04 08:59:48.341 1: CUNO_HM: A0B41A25819E0D719DA380000 -76
2013.01.04 08:59:48.356 1: RCV L:0B N:41 F:A2 CMD:58 SRC:ThermostatBad DST:Heizkorper_Bad 0000 (ClimateEvent CMD:0x00 ValvePos:0x00) (,WAKEMEUP,BIDI,RPTEN)
2013.01.04 08:59:48.721 1: CUNO_HM: A0E41820219DA3819E0D7010100002B -64.5
2013.01.04 08:59:48.736 1: RCV L:0E N:41 F:82 CMD:02 SRC:Heizkorper_Bad DST:ThermostatBad 010100002B (ACK_STATUS CHANNEL:0x01 STATUS:0x00 UP:0x00 DOWN:0x00 LOWBAT:0x00 RSSI:0x2B) (,WAKEMEUP,RPTEN)
2013.01.04 08:59:49.036 1: CUNO_HM: A0C87867019E0AA00000000C43B -86
2013.01.04 08:59:49.051 1: RCV L:0C N:87 F:86 CMD:70 SRC:ThermostatSchlaf DST:broadcast 00C43B (WeatherEvent TEMP:0x00C4 HUM:0x3B) (,WAKEMEUP,CFG,RPTEN)
2013.01.04 09:00:01.359 1: CUNO_HM: A0B87A25819E0AA19DA590000 -89.5
2013.01.04 09:00:01.375 1: RCV L:0B N:87 F:A2 CMD:58 SRC:ThermostatSchlaf DST:HeizkorperSch 0000 (ClimateEvent CMD:0x00 ValvePos:0x00) (,WAKEMEUP,BIDI,RPTEN)
2013.01.04 09:00:01.742 1: CUNO_HM: A0E87820219DA5919E0AA0101000034 -58.5
2013.01.04 09:00:01.757 1: RCV L:0E N:87 F:82 CMD:02 SRC:HeizkorperSch DST:ThermostatSchlaf 0101000034 (ACK_STATUS CHANNEL:0x01 STATUS:0x00 UP:0x00 DOWN:0x00 LOWBAT:0x00 RSSI:0x34) (,WAKEMEUP,RPTEN)
2013.01.04 09:00:59.424 1: CUNO_HM: A0C67867019E0D500000000C73A -62.5
2013.01.04 09:00:59.440 1: RCV L:0C N:67 F:86 CMD:70 SRC:Thermostat_Wohnzimmer DST:broadcast 00C73A (WeatherEvent TEMP:0x00C7 HUM:0x3A) (,WAKEMEUP,CFG,RPTEN)
2013.01.04 09:01:11.812 1: CUNO_HM: A0B67A25819E0D519DA4400B9 -62
2013.01.04 09:01:11.827 1: RCV L:0B N:67 F:A2 CMD:58 SRC:Thermostat_Wohnzimmer DST:Heizkorper_Kuche 00B9 (ClimateEvent CMD:0x00 ValvePos:0xB9) (,WAKEMEUP,BIDI,RPTEN)
2013.01.04 09:01:12.190 1: CUNO_HM: A0E67820219DA4419E0D50101900042 -48
2013.01.04 09:01:12.205 1: RCV L:0E N:67 F:82 CMD:02 SRC:Heizkorper_Kuche DST:Thermostat_Wohnzimmer 0101900042 (ACK_STATUS CHANNEL:0x01 STATUS:0x90 UP:0x00 DOWN:0x00 LOWBAT:0x00 RSSI:0x42) (,WAKEMEUP,RPTEN)
2013.01.04 09:01:28.702 1: CUNO_HM: A0C48867019E0DB00000000CD38 -53.5
2013.01.04 09:01:28.718 1: RCV L:0C N:48 F:86 CMD:70 SRC:Thermostat_Vorraum DST:broadcast 00CD38 (WeatherEvent TEMP:0x00CD HUM:0x38) (,WAKEMEUP,CFG,RPTEN)
2013.01.04 09:01:34.942 1: CUNO_HM: A0C88867019E0AA00000000C43A -87
2013.01.04 09:01:34.958 1: RCV L:0C N:88 F:86 CMD:70 SRC:ThermostatSchlaf DST:broadcast 00C43A (WeatherEvent TEMP:0x00C4 HUM:0x3A) (,WAKEMEUP,CFG,RPTEN)
2013.01.04 09:01:36.683 1: CUNO_HM: A0C42867019E0D700000000D043 -77
2013.01.04 09:01:36.698 1: RCV L:0C N:42 F:86 CMD:70 SRC:ThermostatBad DST:broadcast 00D043 (WeatherEvent TEMP:0x00D0 HUM:0x43) (,WAKEMEUP,CFG,RPTEN)
2013.01.04 09:01:46.380 1: CUNO_HM: A0B48A25819E0DB19DABC0050 -53.5
2013.01.04 09:01:46.396 1: RCV L:0B N:48 F:A2 CMD:58 SRC:Thermostat_Vorraum DST:HeizkorperVo 0050 (ClimateEvent CMD:0x00 ValvePos:0x50) (,WAKEMEUP,BIDI,RPTEN)
2013.01.04 09:01:46.760 1: CUNO_HM: A0E48820219DABC19E0DB01013E0027 -59
2013.01.04 09:01:46.775 1: RCV L:0E N:48 F:82 CMD:02 SRC:HeizkorperVo DST:Thermostat_Vorraum 01013E0027 (ACK_STATUS CHANNEL:0x01 STATUS:0x3E UP:0x00 DOWN:0x00 LOWBAT:0x00 RSSI:0x27) (,WAKEMEUP,RPTEN)
2013.01.04 09:01:54.833 1: CUNO_HM: A0B88A25819E0AA19DA590000 -93.5
2013.01.04 09:01:54.849 1: RCV L:0B N:88 F:A2 CMD:58 SRC:ThermostatSchlaf DST:HeizkorperSch 0000 (ClimateEvent CMD:0x00 ValvePos:0x00) (,WAKEMEUP,BIDI,RPTEN)
2013.01.04 09:01:55.213 1: CUNO_HM: A0E88820219DA5919E0AA0101000034 -58.5
2013.01.04 09:01:55.228 1: RCV L:0E N:88 F:82 CMD:02 SRC:HeizkorperSch DST:ThermostatSchlaf 0101000034 (ACK_STATUS CHANNEL:0x01 STATUS:0x00 UP:0x00 DOWN:0x00 LOWBAT:0x00 RSSI:0x34) (,WAKEMEUP,RPTEN)
2013.01.04 09:01:56.573 1: CUNO_HM: A0B42A25819E0D719DA380000 -76.5
2013.01.04 09:01:56.593 1: RCV L:0B N:42 F:A2 CMD:58 SRC:ThermostatBad DST:Heizkorper_Bad 0000 (ClimateEvent CMD:0x00 ValvePos:0x00) (,WAKEMEUP,BIDI,RPTEN)
2013.01.04 09:01:56.976 1: CUNO_HM: A0E42820219DA3819E0D7010100002B -65
2013.01.04 09:01:56.990 1: RCV L:0E N:42 F:82 CMD:02 SRC:Heizkorper_Bad DST:ThermostatBad 010100002B (ACK_STATUS CHANNEL:0x01 STATUS:0x00 UP:0x00 DOWN:0x00 LOWBAT:0x00 RSSI:0x2B) (,WAKEMEUP,RPTEN)
2013.01.04 09:03:15.586 0: Server shutdown
2013.01.04 09:03:15.602 1: SW: X00
2013.01.04 09:03:19.465 1: Including fhem.cfg
Subroutine trim redefined at ./FHEM/99_WlanUtils.pm line 28, <$fh> line 4.
Subroutine ltrim redefined at ./FHEM/99_WlanUtils.pm line 37, <$fh> line 4.
Subroutine rtrim redefined at ./FHEM/99_WlanUtils.pm line 45, <$fh> line 4.
2013.01.04 09:03:20.488 3: telnetPort: port 7072 opened
2013.01.04 09:03:21.108 3: WEB: port 8083 opened
2013.01.04 09:03:21.318 3: WEBphone: port 8084 opened
2013.01.04 09:03:21.532 3: WEBtablet: port 8085 opened
2013.01.04 09:03:22.118 3: Opening CUNO_HM device
2013.01.04 09:03:22.126 3: CUNO_HM device opened
2013.01.04 09:03:22.253 3: CUNO_HM: Possible commands: mBCFiAIGMRTVWXOefltuxEcq
2013.01.04 09:03:22.296 2: Switched CUNO_HM rfmode to HomeMatic
2013.01.04 09:03:22.301 3: Opening CUNO_FS20 device
2013.01.04 09:03:22.309 3: CUNO_FS20 device opened
2013.01.04 09:03:22.435 3: CUNO_FS20: Possible commands: mBCFiAIGMRTVWXOefltuxEcq
2013.01.04 09:03:22.580 1: Including /var/InternerSpeicher/fhem/FHEM/Wetter.cfg
2013.01.04 09:03:23.385 1: Including /var/InternerSpeicher/fhem/FHEM/Weihnachtsbeleuchtung.cfg
2013.01.04 09:03:23.630 1: Including /var/InternerSpeicher/fhem/FHEM/allesEin.cfg
2013.01.04 09:03:23.658 1: Including /var/InternerSpeicher/fhem/FHEM/allesAus.cfg
2013.01.04 09:03:23.687 1: Including /var/InternerSpeicher/fhem/FHEM/Links.cfg
2013.01.04 09:03:23.926 1: Including /var/InternerSpeicher/fhem/FHEM/HomeStatus.cfg
2013.01.04 09:03:37.341 1: Including ./log/fhem.save
Use of uninitialized value in string eq at fhem.pl line 1835, <$fh> line 332.
Use of uninitialized value in string eq at fhem.pl line 1835, <$fh> line 402.
2013.01.04 09:03:38.211 0: Server started (version Fhem 5.3 (DEVELOPMENT), $Id: fhem.pl 2405 2013-01-03 12:50:16Z rudolfkoenig $, pid 6436)
2013.01.04 09:03:38.257 1: CUNO_HM: A0B68A25819E0D519DA4400B9 -62
2013.01.04 09:03:38.272 1: RCV L:0B N:68 F:A2 CMD:58 SRC:Thermostat_Wohnzimmer DST:Heizkorper_Kuche 00B9 (ClimateEvent CMD:0x00 ValvePos:0xB9) (,WAKEMEUP,BIDI,RPTEN)
2013.01.04 09:03:38.383 1: CUNO_HM: A0E68820219DA4419E0D50101900043 -48
2013.01.04 09:03:38.398 1: RCV L:0E N:68 F:82 CMD:02 SRC:Heizkorper_Kuche DST:Thermostat_Wohnzimmer 0101900043 (ACK_STATUS CHANNEL:0x01 STATUS:0x90 UP:0x00 DOWN:0x00 LOWBAT:0x00 RSSI:0x43) (,WAKEMEUP,RPTEN)
2013.01.04 09:03:41.746 1: CUNO_HM: A0C49867019E0DB00000000CD38 -53.5
2013.01.04 09:03:41.761 1: RCV L:0C N:49 F:86 CMD:70 SRC:Thermostat_Vorraum DST:broadcast 00CD38 (WeatherEvent TEMP:0x00CD HUM:0x38) (,WAKEMEUP,CFG,RPTEN)
2013.01.04 09:03:45.228 1: CUNO_HM: A0B37A4401C630E100001028D -58.5
2013.01.04 09:03:45.242 1: RCV L:0B N:37 F:A4 CMD:40 SRC:eg_flur_schalter1 DST:Vact 028D (REMOTE BUTTON:0x02 LONG:0x02 LOWBAT:0x02 COUNTER:0x8D) (,CFG,BIDI,RPTEN)
2013.01.04 09:03:45.328 1: SW: As0D3780021000011C630E0101C800
2013.01.04 09:03:45.341 1: SND L:0D N:37 F:80 CMD:02 SRC:Vact DST:eg_flur_schalter1 0101C800 (ACK_STATUS CHANNEL:0x01 STATUS:0xC8 UP:0x00 DOWN:0x00 LOWBAT:0x00) (,RPTEN)
2013.01.04 09:03:45.724 1: CUNO_HM: A0B37A0401C630E100001028D -54
2013.01.04 09:03:48.211 1: CUNO_HM: A0B38A4401C630E100001018B -53
2013.01.04 09:03:48.225 1: RCV L:0B N:38 F:A4 CMD:40 SRC:eg_flur_schalter1 DST:Vact 018B (REMOTE BUTTON:0x01 LONG:0x01 LOWBAT:0x01 COUNTER:0x8B) (,CFG,BIDI,RPTEN)
2013.01.04 09:03:48.311 1: SW: As0D3880021000011C630E01010000
2013.01.04 09:03:48.325 1: SND L:0D N:38 F:80 CMD:02 SRC:Vact DST:eg_flur_schalter1 01010000 (ACK_STATUS CHANNEL:0x01 STATUS:0x00 UP:0x00 DOWN:0x00 LOWBAT:0x00) (,RPTEN)
2013.01.04 09:03:48.455 1: CUNO_HM: A0B38A0401C630E100001018B -53.5
2013.01.04 09:03:48.708 1: CUNO_HM: A0B38A0401C630E100001018B -53.5
2013.01.04 09:03:52.935 1: CUNO_HM: A0B39A4401C630E100001028E -55.5
2013.01.04 09:03:52.950 1: RCV L:0B N:39 F:A4 CMD:40 SRC:eg_flur_schalter1 DST:Vact 028E (REMOTE BUTTON:0x02 LONG:0x02 LOWBAT:0x02 COUNTER:0x8E) (,CFG,BIDI,RPTEN)
2013.01.04 09:03:53.036 1: SW: As0D3980021000011C630E0101C800
2013.01.04 09:03:53.049 1: SND L:0D N:39 F:80 CMD:02 SRC:Vact DST:eg_flur_schalter1 0101C800 (ACK_STATUS CHANNEL:0x01 STATUS:0xC8 UP:0x00 DOWN:0x00 LOWBAT:0x00) (,RPTEN)
2013.01.04 09:03:56.167 1: CUNO_HM: A0B3AA4401C630E100001028F -61
2013.01.04 09:03:56.181 1: RCV L:0B N:3A F:A4 CMD:40 SRC:eg_flur_schalter1 DST:Vact 028F (REMOTE BUTTON:0x02 LONG:0x02 LOWBAT:0x02 COUNTER:0x8F) (,CFG,BIDI,RPTEN)
2013.01.04 09:03:56.267 1: SW: As0D3A80021000011C630E01010000
2013.01.04 09:03:56.280 1: SND L:0D N:3A F:80 CMD:02 SRC:Vact DST:eg_flur_schalter1 01010000 (ACK_STATUS CHANNEL:0x01 STATUS:0x00 UP:0x00 DOWN:0x00 LOWBAT:0x00) (,RPTEN)
2013.01.04 09:03:56.411 1: CUNO_HM: A0B3AA0401C630E100001028F -61
2013.01.04 09:03:56.664 1: CUNO_HM: A0B3AA0401C630E100001028F -61
2013.01.04 09:03:59.897 1: CUNO_HM: A0C43867019E0D700000000D043 -76
2013.01.04 09:03:59.913 1: RCV L:0C N:43 F:86 CMD:70 SRC:ThermostatBad DST:broadcast 00D043 (WeatherEvent TEMP:0x00D0 HUM:0x43) (,WAKEMEUP,CFG,RPTEN)
2013.01.04 09:04:01.637 1: CUNO_HM: A0B49A25819E0DB19DABC0050 -53.5
2013.01.04 09:04:01.653 1: RCV L:0B N:49 F:A2 CMD:58 SRC:Thermostat_Vorraum DST:HeizkorperVo 0050 (ClimateEvent CMD:0x00 ValvePos:0x50) (,WAKEMEUP,BIDI,RPTEN)
2013.01.04 09:04:01.886 1: CUNO_HM: A0E49820219DABC19E0DB01013E0027 -58.5
2013.01.04 09:04:01.900 1: RCV L:0E N:49 F:82 CMD:02 SRC:HeizkorperVo DST:Thermostat_Vorraum 01013E0027 (ACK_STATUS CHANNEL:0x01 STATUS:0x3E UP:0x00 DOWN:0x00 LOWBAT:0x00 RSSI:0x27) (,WAKEMEUP,RPTEN)
2013.01.04 09:04:03.875 1: CUNO_HM: A0B3BA4401C630E100001018C -54
2013.01.04 09:04:03.890 1: RCV L:0B N:3B F:A4 CMD:40 SRC:eg_flur_schalter1 DST:Vact 018C (REMOTE BUTTON:0x01 LONG:0x01 LOWBAT:0x01 COUNTER:0x8C) (,CFG,BIDI,RPTEN)
2013.01.04 09:04:03.975 1: SW: As0D3B80021000011C630E0101C800
2013.01.04 09:04:03.989 1: SND L:0D N:3B F:80 CMD:02 SRC:Vact DST:eg_flur_schalter1 0101C800 (ACK_STATUS CHANNEL:0x01 STATUS:0xC8 UP:0x00 DOWN:0x00 LOWBAT:0x00) (,RPTEN)
2013.01.04 09:04:08.599 1: CUNO_HM: A0B3CA4401C630E1000010290 -56
2013.01.04 09:04:08.614 1: RCV L:0B N:3C F:A4 CMD:40 SRC:eg_flur_schalter1 DST:Vact 0290 (REMOTE BUTTON:0x02 LONG:0x02 LOWBAT:0x02 COUNTER:0x90) (,CFG,BIDI,RPTEN)
2013.01.04 09:04:08.699 1: SW: As0D3C80021000011C630E01010000
2013.01.04 09:04:08.712 1: SND L:0D N:3C F:80 CMD:02 SRC:Vact DST:eg_flur_schalter1 01010000 (ACK_STATUS CHANNEL:0x01 STATUS:0x00 UP:0x00 DOWN:0x00 LOWBAT:0x00) (,RPTEN)
2013.01.04 09:04:08.843 1: CUNO_HM: A0B3CA0401C630E1000010290 -56.5
2013.01.04 09:04:19.788 1: CUNO_HM: A0B43A25819E0D719DA380000 -78
2013.01.04 09:04:19.802 1: RCV L:0B N:43 F:A2 CMD:58 SRC:ThermostatBad DST:Heizkorper_Bad 0000 (ClimateEvent CMD:0x00 ValvePos:0x00) (,WAKEMEUP,BIDI,RPTEN)
2013.01.04 09:04:20.036 1: CUNO_HM: A0E43820219DA3819E0D7010100002B -65
2013.01.04 09:04:20.050 1: RCV L:0E N:43 F:82 CMD:02 SRC:Heizkorper_Bad DST:ThermostatBad 010100002B (ACK_STATUS CHANNEL:0x01 STATUS:0x00 UP:0x00 DOWN:0x00 LOWBAT:0x00 RSSI:0x2B) (,WAKEMEUP,RPTEN)
2013.01.04 09:04:46.393 1: CUNO_HM: A0B89A25819E0AA19DA590000 -86.5
2013.01.04 09:04:46.409 1: RCV L:0B N:89 F:A2 CMD:58 SRC:ThermostatSchlaf DST:HeizkorperSch 0000 (ClimateEvent CMD:0x00 ValvePos:0x00) (,WAKEMEUP,BIDI,RPTEN)
2013.01.04 09:04:46.529 1: CUNO_HM: A0E89820219DA5919E0AA0101000034 -60
2013.01.04 09:04:46.544 1: RCV L:0E N:89 F:82 CMD:02 SRC:HeizkorperSch DST:ThermostatSchlaf 0101000034 (ACK_STATUS CHANNEL:0x01 STATUS:0x00 UP:0x00 DOWN:0x00 LOWBAT:0x00 RSSI:0x34) (,WAKEMEUP,RPTEN)
2013.01.04 09:04:50.618 1: CUNO_HM: A0B3DA4401C630E1000010291 -52.5
2013.01.04 09:04:50.633 1: RCV L:0B N:3D F:A4 CMD:40 SRC:eg_flur_schalter1 DST:Vact 0291 (REMOTE BUTTON:0x02 LONG:0x02 LOWBAT:0x02 COUNTER:0x91) (,CFG,BIDI,RPTEN)
2013.01.04 09:04:50.719 1: SW: As0D3D80021000011C630E0101C800
2013.01.04 09:04:50.732 1: SND L:0D N:3D F:80 CMD:02 SRC:Vact DST:eg_flur_schalter1 0101C800 (ACK_STATUS CHANNEL:0x01 STATUS:0xC8 UP:0x00 DOWN:0x00 LOWBAT:0x00) (,RPTEN)
2013.01.04 09:04:50.866 1: CUNO_HM: A0B3DA0401C630E1000010291 -53
2013.01.04 09:04:51.116 1: CUNO_HM: A0B3DA0401C630E1000010291 -53
2013.01.04 09:04:53.850 1: CUNO_HM: A0B3E84401C630E1000014292 -53
2013.01.04 09:04:53.865 1: RCV L:0B N:3E F:84 CMD:40 SRC:eg_flur_schalter1 DST:Vact 4292 (REMOTE BUTTON:0x42 LONG:0x42 LOWBAT:0x42 COUNTER:0x92) (,CFG,RPTEN)
2013.01.04 09:04:54.099 1: CUNO_HM: A0B3F84401C630E1000014292 -53.5
2013.01.04 09:04:54.113 1: RCV L:0B N:3F F:84 CMD:40 SRC:eg_flur_schalter1 DST:Vact 4292 (REMOTE BUTTON:0x42 LONG:0x42 LOWBAT:0x42 COUNTER:0x92) (,CFG,RPTEN)
2013.01.04 09:04:54.348 1: CUNO_HM: A0B40A0401C630E1000014292 -53
2013.01.04 09:04:54.362 1: RCV L:0B N:40 F:A0 CMD:40 SRC:eg_flur_schalter1 DST:Vact 4292 (REMOTE BUTTON:0x42 LONG:0x42 LOWBAT:0x42 COUNTER:0x92) (,BIDI,RPTEN)
2013.01.04 09:04:54.448 1: SW: As0D4080021000011C630E01010000
2013.01.04 09:04:54.461 1: SND L:0D N:40 F:80 CMD:02 SRC:Vact DST:eg_flur_schalter1 01010000 (ACK_STATUS CHANNEL:0x01 STATUS:0x00 UP:0x00 DOWN:0x00 LOWBAT:0x00) (,RPTEN)
2013.01.04 09:04:54.592 1: CUNO_HM: A0B40A0401C630E1000014292 -53
2013.01.04 09:04:54.845 1: CUNO_HM: A0B40A0401C630E1000014292 -53
2013.01.04 09:04:57.580 1: CUNO_HM: A0B41A4401C630E100001018D -52
2013.01.04 09:04:57.595 1: RCV L:0B N:41 F:A4 CMD:40 SRC:eg_flur_schalter1 DST:Vact 018D (REMOTE BUTTON:0x01 LONG:0x01 LOWBAT:0x01 COUNTER:0x8D) (,CFG,BIDI,RPTEN)
2013.01.04 09:04:57.680 1: SW: As0D4180021000011C630E0101C800
2013.01.04 09:04:57.693 1: SND L:0D N:41 F:80 CMD:02 SRC:Vact DST:eg_flur_schalter1 0101C800 (ACK_STATUS CHANNEL:0x01 STATUS:0xC8 UP:0x00 DOWN:0x00 LOWBAT:0x00) (,RPTEN)
2013.01.04 09:04:57.829 1: CUNO_HM: A0B41A0401C630E100001018D -56
2013.01.04 09:04:58.077 1: CUNO_HM: A0B41A0401C630E100001018D -54.5
2013.01.04 09:05:00.315 1: CUNO_HM: A0B42A4401C630E1000010293 -53
2013.01.04 09:05:00.330 1: RCV L:0B N:42 F:A4 CMD:40 SRC:eg_flur_schalter1 DST:Vact 0293 (REMOTE BUTTON:0x02 LONG:0x02 LOWBAT:0x02 COUNTER:0x93) (,CFG,BIDI,RPTEN)
2013.01.04 09:05:00.415 1: SW: As0D4280021000011C630E01010000
2013.01.04 09:05:00.429 1: SND L:0D N:42 F:80 CMD:02 SRC:Vact DST:eg_flur_schalter1 01010000 (ACK_STATUS CHANNEL:0x01 STATUS:0x00 UP:0x00 DOWN:0x00 LOWBAT:0x00) (,RPTEN)
2013.01.04 09:05:03.050 1: CUNO_HM: A0B43A4401C630E100001018E -54
2013.01.04 09:05:03.065 1: RCV L:0B N:43 F:A4 CMD:40 SRC:eg_flur_schalter1 DST:Vact 018E (REMOTE BUTTON:0x01 LONG:0x01 LOWBAT:0x01 COUNTER:0x8E) (,CFG,BIDI,RPTEN)
2013.01.04 09:05:03.150 1: SW: As0D4380021000011C630E0101C800
2013.01.04 09:05:03.164 1: SND L:0D N:43 F:80 CMD:02 SRC:Vact DST:eg_flur_schalter1 0101C800 (ACK_STATUS CHANNEL:0x01 STATUS:0xC8 UP:0x00 DOWN:0x00 LOWBAT:0x00) (,RPTEN)
2013.01.04 09:05:03.295 1: CUNO_HM: A0B43A0401C630E100001018E -60.5
2013.01.04 09:05:03.548 1: CUNO_HM: A0B43A0401C630E100001018E -56
2013.01.04 09:05:04.791 1: CUNO_HM: A0B44A4401C630E1000010294 -55
2013.01.04 09:05:04.806 1: RCV L:0B N:44 F:A4 CMD:40 SRC:eg_flur_schalter1 DST:Vact 0294 (REMOTE BUTTON:0x02 LONG:0x02 LOWBAT:0x02 COUNTER:0x94) (,CFG,BIDI,RPTEN)
2013.01.04 09:05:04.892 1: SW: As0D4480021000011C630E01010000
2013.01.04 09:05:04.905 1: SND L:0D N:44 F:80 CMD:02 SRC:Vact DST:eg_flur_schalter1 01010000 (ACK_STATUS CHANNEL:0x01 STATUS:0x00 UP:0x00 DOWN:0x00 LOWBAT:0x00) (,RPTEN)
2013.01.04 09:05:08.271 1: CUNO_HM: A0B45A4401C630E100001018F -51.5
2013.01.04 09:05:08.288 1: RCV L:0B N:45 F:A4 CMD:40 SRC:eg_flur_schalter1 DST:Vact 018F (REMOTE BUTTON:0x01 LONG:0x01 LOWBAT:0x01 COUNTER:0x8F) (,CFG,BIDI,RPTEN)
2013.01.04 09:05:08.364 1: SW: As0D4580021000011C630E0101C800
2013.01.04 09:05:08.377 1: SND L:0D N:45 F:80 CMD:02 SRC:Vact DST:eg_flur_schalter1 0101C800 (ACK_STATUS CHANNEL:0x01 STATUS:0xC8 UP:0x00 DOWN:0x00 LOWBAT:0x00) (,RPTEN)
2013.01.04 09:05:12.249 1: CUNO_HM: A0B46A4401C630E1000010295 -51.5
2013.01.04 09:05:12.264 1: RCV L:0B N:46 F:A4 CMD:40 SRC:eg_flur_schalter1 DST:Vact 0295 (REMOTE BUTTON:0x02 LONG:0x02 LOWBAT:0x02 COUNTER:0x95) (,CFG,BIDI,RPTEN)
2013.01.04 09:05:12.350 1: SW: As0D4680021000011C630E01010000
2013.01.04 09:05:12.364 1: SND L:0D N:46 F:80 CMD:02 SRC:Vact DST:eg_flur_schalter1 01010000 (ACK_STATUS CHANNEL:0x01 STATUS:0x00 UP:0x00 DOWN:0x00 LOWBAT:0x00) (,RPTEN)
2013.01.04 09:05:12.498 1: CUNO_HM: A0B46A0401C630E1000010295 -51.5
2013.01.04 09:05:12.746 1: CUNO_HM: A0B46A0401C630E1000010295 -51.5
2013.01.04 09:05:15.482 1: CUNO_HM: A0B47A4401C630E1000010190 -50
2013.01.04 09:05:15.497 1: RCV L:0B N:47 F:A4 CMD:40 SRC:eg_flur_schalter1 DST:Vact 0190 (REMOTE BUTTON:0x01 LONG:0x01 LOWBAT:0x01 COUNTER:0x90) (,CFG,BIDI,RPTEN)
2013.01.04 09:05:15.582 1: SW: As0D4780021000011C630E0101C800
2013.01.04 09:05:15.595 1: SND L:0D N:47 F:80 CMD:02 SRC:Vact DST:eg_flur_schalter1 0101C800 (ACK_STATUS CHANNEL:0x01 STATUS:0xC8 UP:0x00 DOWN:0x00 LOWBAT:0x00) (,RPTEN)
2013.01.04 09:05:15.725 1: CUNO_HM: A0B47A0401C630E1000010190 -50.5
2013.01.04 09:05:15.979 1: CUNO_HM: A0B47A0401C630E1000010190 -50.5
2013.01.04 09:05:19.460 1: CUNO_HM: A0B48A4401C630E1000010296 -50.5
2013.01.04 09:05:19.475 1: RCV L:0B N:48 F:A4 CMD:40 SRC:eg_flur_schalter1 DST:Vact 0296 (REMOTE BUTTON:0x02 LONG:0x02 LOWBAT:0x02 COUNTER:0x96) (,CFG,BIDI,RPTEN)
2013.01.04 09:05:19.560 1: SW: As0D4880021000011C630E01010000
2013.01.04 09:05:19.573 1: SND L:0D N:48 F:80 CMD:02 SRC:Vact DST:eg_flur_schalter1 01010000 (ACK_STATUS CHANNEL:0x01 STATUS:0x00 UP:0x00 DOWN:0x00 LOWBAT:0x00) (,RPTEN)
2013.01.04 09:05:19.702 1: CUNO_HM: A0B48A0401C630E1000010296 -50.5
2013.01.04 09:05:19.957 1: CUNO_HM: A0B48A0401C630E1000010296 -50.5
2013.01.04 09:05:35.948 1: CUNO_HM: A0B49A4401C630E1000010191 -51
2013.01.04 09:05:35.964 1: RCV L:0B N:49 F:A4 CMD:40 SRC:eg_flur_schalter1 DST:Vact 0191 (REMOTE BUTTON:0x01 LONG:0x01 LOWBAT:0x01 COUNTER:0x91) (,CFG,BIDI,RPTEN)
2013.01.04 09:05:36.040 1: SW: As0D4980021000011C630E0101C800
2013.01.04 09:05:36.053 1: SND L:0D N:49 F:80 CMD:02 SRC:Vact DST:eg_flur_schalter1 0101C800 (ACK_STATUS CHANNEL:0x01 STATUS:0xC8 UP:0x00 DOWN:0x00 LOWBAT:0x00) (,RPTEN)
2013.01.04 09:05:36.182 1: CUNO_HM: A0B49A0401C630E1000010191 -51
2013.01.04 09:05:36.197 1: CUNO_HM: A0B49A0401C630E1000010191 -51.5
2013.01.04 09:05:36.210 1: CUNO_HM: A0B4AA4401C630E1000010297 -50
2013.01.04 09:05:36.225 1: RCV L:0B N:4A F:A4 CMD:40 SRC:eg_flur_schalter1 DST:Vact 0297 (REMOTE BUTTON:0x02 LONG:0x02 LOWBAT:0x02 COUNTER:0x97) (,CFG,BIDI,RPTEN)
2013.01.04 09:05:36.231 1: SND L:0D N:4A F:80 CMD:02 SRC:Vact DST:eg_flur_schalter1 01010000 (ACK_STATUS CHANNEL:0x01 STATUS:0x00 UP:0x00 DOWN:0x00 LOWBAT:0x00) (,RPTEN)
2013.01.04 09:05:36.362 1: CUNO_HM: A0B4AA0401C630E1000010297 -51
2013.01.04 09:05:36.377 1: CUNO_HM: A0B4AA0401C630E1000010297 -52.5
2013.01.04 09:05:36.392 1: CUNO_HM: A0C69867019E0D500000000C73A -64.5
2013.01.04 09:05:36.407 1: RCV L:0C N:69 F:86 CMD:70 SRC:Thermostat_Wohnzimmer DST:broadcast 00C73A (WeatherEvent TEMP:0x00C7 HUM:0x3A) (,WAKEMEUP,CFG,RPTEN)
2013.01.04 09:05:36.542 1: CUNO_HM: A0B4BA4401C630E1000010192 -49
2013.01.04 09:05:36.557 1: RCV L:0B N:4B F:A4 CMD:40 SRC:eg_flur_schalter1 DST:Vact 0192 (REMOTE BUTTON:0x01 LONG:0x01 LOWBAT:0x01 COUNTER:0x92) (,CFG,BIDI,RPTEN)
2013.01.04 09:05:36.563 1: SND L:0D N:4B F:80 CMD:02 SRC:Vact DST:eg_flur_schalter1 0101C800 (ACK_STATUS CHANNEL:0x01 STATUS:0xC8 UP:0x00 DOWN:0x00 LOWBAT:0x00) (,RPTEN)
2013.01.04 09:05:36.693 1: SW: As0D4A80021000011C630E01010000
2013.01.04 09:05:36.706 1: CUNO_HM: A0B4BA0401C630E1000010192 -48.5
2013.01.04 09:05:36.721 1: CUNO_HM: A0B4BA0401C630E1000010192 -47
2013.01.04 09:05:36.736 1: CUNO_HM: A0B4CA4401C630E1000010298 -58.5
2013.01.04 09:05:36.750 1: RCV L:0B N:4C F:A4 CMD:40 SRC:eg_flur_schalter1 DST:Vact 0298 (REMOTE BUTTON:0x02 LONG:0x02 LOWBAT:0x02 COUNTER:0x98) (,CFG,BIDI,RPTEN)
2013.01.04 09:05:36.756 1: SND L:0D N:4C F:80 CMD:02 SRC:Vact DST:eg_flur_schalter1 01010000 (ACK_STATUS CHANNEL:0x01 STATUS:0x00 UP:0x00 DOWN:0x00 LOWBAT:0x00) (,RPTEN)
2013.01.04 09:05:36.886 1: SW: As0D4B80021000011C630E0101C800
2013.01.04 09:05:37.050 1: SW: As0D4C80021000011C630E01010000
2013.01.04 09:05:40.345 1: CUNO_HM: A0B4DA4401C630E1000010193 -53
2013.01.04 09:05:40.360 1: RCV L:0B N:4D F:A4 CMD:40 SRC:eg_flur_schalter1 DST:Vact 0193 (REMOTE BUTTON:0x01 LONG:0x01 LOWBAT:0x01 COUNTER:0x93) (,CFG,BIDI,RPTEN)
2013.01.04 09:05:40.446 1: SW: As0D4D80021000011C630E0101C800
2013.01.04 09:05:40.459 1: SND L:0D N:4D F:80 CMD:02 SRC:Vact DST:eg_flur_schalter1 0101C800 (ACK_STATUS CHANNEL:0x01 STATUS:0xC8 UP:0x00 DOWN:0x00 LOWBAT:0x00) (,RPTEN)
2013.01.04 09:05:40.593 1: CUNO_HM: A0B4DA0401C630E1000010193 -53
2013.01.04 09:05:40.842 1: CUNO_HM: A0B4DA0401C630E1000010193 -53
2013.01.04 09:05:42.334 1: CUNO_HM: A0C4A867019E0DB00000000CD38 -53.5
2013.01.04 09:05:42.349 1: RCV L:0C N:4A F:86 CMD:70 SRC:Thermostat_Vorraum DST:broadcast 00CD38 (WeatherEvent TEMP:0x00CD HUM:0x38) (,WAKEMEUP,CFG,RPTEN)
2013.01.04 09:05:44.821 1: CUNO_HM: A0B4EA4401C630E1000010299 -52
2013.01.04 09:05:44.836 1: RCV L:0B N:4E F:A4 CMD:40 SRC:eg_flur_schalter1 DST:Vact 0299 (REMOTE BUTTON:0x02 LONG:0x02 LOWBAT:0x02 COUNTER:0x99) (,CFG,BIDI,RPTEN)
2013.01.04 09:05:44.921 1: SW: As0D4E80021000011C630E01010000
2013.01.04 09:05:44.934 1: SND L:0D N:4E F:80 CMD:02 SRC:Vact DST:eg_flur_schalter1 01010000 (ACK_STATUS CHANNEL:0x01 STATUS:0x00 UP:0x00 DOWN:0x00 LOWBAT:0x00) (,RPTEN)
2013.01.04 09:05:45.318 1: CUNO_HM: A0B4EA0401C630E1000010299 -53
2013.01.04 09:05:49.546 1: CUNO_HM: A0B69A25819E0D519DA4400B9 -64
2013.01.04 09:05:49.560 1: RCV L:0B N:69 F:A2 CMD:58 SRC:Thermostat_Wohnzimmer DST:Heizkorper_Kuche 00B9 (ClimateEvent CMD:0x00 ValvePos:0xB9) (,WAKEMEUP,BIDI,RPTEN)
2013.01.04 09:05:49.678 1: CUNO_HM: A0B4FA4401C630E1000010194 -51.5
2013.01.04 09:05:49.693 1: RCV L:0B N:4F F:A4 CMD:40 SRC:eg_flur_schalter1 DST:Vact 0194 (REMOTE BUTTON:0x01 LONG:0x01 LOWBAT:0x01 COUNTER:0x94) (,CFG,BIDI,RPTEN)
2013.01.04 09:05:49.778 1: SW: As0D4F80021000011C630E0101C800
2013.01.04 09:05:49.791 1: SND L:0D N:4F F:80 CMD:02 SRC:Vact DST:eg_flur_schalter1 0101C800 (ACK_STATUS CHANNEL:0x01 STATUS:0xC8 UP:0x00 DOWN:0x00 LOWBAT:0x00) (,RPTEN)
2013.01.04 09:05:49.919 1: CUNO_HM: A0E69820219DA4419E0D50101900041 -49.5
2013.01.04 09:05:49.934 1: RCV L:0E N:69 F:82 CMD:02 SRC:Heizkorper_Kuche DST:Thermostat_Wohnzimmer 0101900041 (ACK_STATUS CHANNEL:0x01 STATUS:0x90 UP:0x00 DOWN:0x00 LOWBAT:0x00 RSSI:0x41) (,WAKEMEUP,RPTEN)
2013.01.04 09:05:50.084 1: CUNO_HM: A0B4FA0401C630E1000010194 -52.5
2013.01.04 09:05:50.098 1: CUNO_HM: A0B4FA0401C630E1000010194 -53.5
2013.01.04 09:05:56.258 1: CUNO_HM: A0B50A4401C630E100001029A -52.5
2013.01.04 09:05:56.273 1: RCV L:0B N:50 F:A4 CMD:40 SRC:eg_flur_schalter1 DST:Vact 029A (REMOTE BUTTON:0x02 LONG:0x02 LOWBAT:0x02 COUNTER:0x9A) (,CFG,BIDI,RPTEN)
2013.01.04 09:05:56.351 1: SW: As0D5080021000011C630E01010000
2013.01.04 09:05:56.364 1: SND L:0D N:50 F:80 CMD:02 SRC:Vact DST:eg_flur_schalter1 01010000 (ACK_STATUS CHANNEL:0x01 STATUS:0x00 UP:0x00 DOWN:0x00 LOWBAT:0x00) (,RPTEN)
2013.01.04 09:05:56.506 1: CUNO_HM: A0B50A0401C630E100001029A -53
2013.01.04 09:05:56.755 1: CUNO_HM: A0B50A0401C630E100001029A -54
2013.01.04 09:06:00.733 1: CUNO_HM: A0B51A4401C630E1000010195 -53
2013.01.04 09:06:00.748 1: RCV L:0B N:51 F:A4 CMD:40 SRC:eg_flur_schalter1 DST:Vact 0195 (REMOTE BUTTON:0x01 LONG:0x01 LOWBAT:0x01 COUNTER:0x95) (,CFG,BIDI,RPTEN)
2013.01.04 09:06:00.833 1: SW: As0D5180021000011C630E0101C800
2013.01.04 09:06:00.846 1: SND L:0D N:51 F:80 CMD:02 SRC:Vact DST:eg_flur_schalter1 0101C800 (ACK_STATUS CHANNEL:0x01 STATUS:0xC8 UP:0x00 DOWN:0x00 LOWBAT:0x00) (,RPTEN)
2013.01.04 09:06:01.230 1: CUNO_HM: A0B51A0401C630E1000010195 -53.5
2013.01.04 09:06:02.474 1: CUNO_HM: A0B4AA25819E0DB19DABC0050 -53.5
2013.01.04 09:06:02.489 1: RCV L:0B N:4A F:A2 CMD:58 SRC:Thermostat_Vorraum DST:HeizkorperVo 0050 (ClimateEvent CMD:0x00 ValvePos:0x50) (,WAKEMEUP,BIDI,RPTEN)
2013.01.04 09:06:02.608 1: CUNO_HM: A0E4A820219DABC19E0DB01013E0027 -58.5
2013.01.04 09:06:02.622 1: RCV L:0E N:4A F:82 CMD:02 SRC:HeizkorperVo DST:Thermostat_Vorraum 01013E0027 (ACK_STATUS CHANNEL:0x01 STATUS:0x3E UP:0x00 DOWN:0x00 LOWBAT:0x00 RSSI:0x27) (,WAKEMEUP,RPTEN)
2013.01.04 09:06:07.695 1: CUNO_HM: A0B52A4401C630E100001029B -54
2013.01.04 09:06:07.710 1: RCV L:0B N:52 F:A4 CMD:40 SRC:eg_flur_schalter1 DST:Vact 029B (REMOTE BUTTON:0x02 LONG:0x02 LOWBAT:0x02 COUNTER:0x9B) (,CFG,BIDI,RPTEN)
2013.01.04 09:06:07.796 1: SW: As0D5280021000011C630E01010000
2013.01.04 09:06:07.809 1: SND L:0D N:52 F:80 CMD:02 SRC:Vact DST:eg_flur_schalter1 01010000 (ACK_STATUS CHANNEL:0x01 STATUS:0x00 UP:0x00 DOWN:0x00 LOWBAT:0x00) (,RPTEN)
2013.01.04 09:06:08.192 1: CUNO_HM: A0B52A0401C630E100001029B -46.5
2013.01.04 09:06:08.938 1: CUNO_HM: A0C44867019E0D700000000D042 -76
2013.01.04 09:06:08.953 1: RCV L:0C N:44 F:86 CMD:70 SRC:ThermostatBad DST:broadcast 00D042 (WeatherEvent TEMP:0x00D0 HUM:0x42) (,WAKEMEUP,CFG,RPTEN)
2013.01.04 09:06:36.255 1: CUNO_HM: A0B44A25819E0D719DA380000 -76.5
2013.01.04 09:06:36.271 1: RCV L:0B N:44 F:A2 CMD:58 SRC:ThermostatBad DST:Heizkorper_Bad 0000 (ClimateEvent CMD:0x00 ValvePos:0x00) (,WAKEMEUP,BIDI,RPTEN)
2013.01.04 09:06:36.390 1: CUNO_HM: A0E44820219DA3819E0D7010100002B -65
2013.01.04 09:06:36.407 1: RCV L:0E N:44 F:82 CMD:02 SRC:Heizkorper_Bad DST:ThermostatBad 010100002B (ACK_STATUS CHANNEL:0x01 STATUS:0x00 UP:0x00 DOWN:0x00 LOWBAT:0x00 RSSI:0x2B) (,WAKEMEUP,RPTEN)
2013.01.04 09:07:03.390 1: CUNO_HM: A0C8A867019E0AA00000000C33B -91.5
2013.01.04 09:07:03.405 1: RCV L:0C N:8A F:86 CMD:70 SRC:ThermostatSchlaf DST:broadcast 00C33B (WeatherEvent TEMP:0x00C3 HUM:0x3B) (,WAKEMEUP,CFG,RPTEN)
2013.01.04 09:07:23.280 1: CUNO_HM: A0B8AA25819E0AA19DA590000 -96
2013.01.04 09:07:23.295 1: RCV L:0B N:8A F:A2 CMD:58 SRC:ThermostatSchlaf DST:HeizkorperSch 0000 (ClimateEvent CMD:0x00 ValvePos:0x00) (,WAKEMEUP,BIDI,RPTEN)
2013.01.04 09:07:23.529 1: CUNO_HM: A0E8A820219DA5919E0AA0101000034 -60.5
2013.01.04 09:07:23.543 1: RCV L:0E N:8A F:82 CMD:02 SRC:HeizkorperSch DST:ThermostatSchlaf 0101000034 (ACK_STATUS CHANNEL:0x01 STATUS:0x00 UP:0x00 DOWN:0x00 LOWBAT:0x00 RSSI:0x34) (,WAKEMEUP,RPTEN)
2013.01.04 09:08:35.963 1: CUNO_HM: A0C6A867019E0D500000000C73A -64
2013.01.04 09:08:35.979 1: RCV L:0C N:6A F:86 CMD:70 SRC:Thermostat_Wohnzimmer DST:broadcast 00C73A (WeatherEvent TEMP:0x00C7 HUM:0x3A) (,WAKEMEUP,CFG,RPTEN)
2013.01.04 09:08:36.113 1: CUNO_HM: A0C4B867019E0DB00000000CD37 -53
2013.01.04 09:08:36.128 1: RCV L:0C N:4B F:86 CMD:70 SRC:Thermostat_Vorraum DST:broadcast 00CD37 (WeatherEvent TEMP:0x00CD HUM:0x37) (,WAKEMEUP,CFG,RPTEN)
2013.01.04 09:08:51.297 1: CUNO_HM: A0B6AA25819E0D519DA4400B9 -63.5
2013.01.04 09:08:51.312 1: RCV L:0B N:6A F:A2 CMD:58 SRC:Thermostat_Wohnzimmer DST:Heizkorper_Kuche 00B9 (ClimateEvent CMD:0x00 ValvePos:0xB9) (,WAKEMEUP,BIDI,RPTEN)
2013.01.04 09:08:51.430 1: CUNO_HM: A0E6A820219DA4419E0D50101900040 -52
2013.01.04 09:08:51.445 1: RCV L:0E N:6A F:82 CMD:02 SRC:Heizkorper_Kuche DST:Thermostat_Wohnzimmer 0101900040 (ACK_STATUS CHANNEL:0x01 STATUS:0x90 UP:0x00 DOWN:0x00 LOWBAT:0x00 RSSI:0x40) (,WAKEMEUP,RPTEN)
2013.01.04 09:08:52.789 1: CUNO_HM: A0B4BA25819E0DB19DABC0050 -53
2013.01.04 09:08:52.804 1: RCV L:0B N:4B F:A2 CMD:58 SRC:Thermostat_Vorraum DST:HeizkorperVo 0050 (ClimateEvent CMD:0x00 ValvePos:0x50) (,WAKEMEUP,BIDI,RPTEN)
2013.01.04 09:08:53.037 1: CUNO_HM: A0E4B820219DABC19E0DB01013E0027 -57.5
2013.01.04 09:08:53.052 1: RCV L:0E N:4B F:82 CMD:02 SRC:HeizkorperVo DST:Thermostat_Vorraum 01013E0027 (ACK_STATUS CHANNEL:0x01 STATUS:0x3E UP:0x00 DOWN:0x00 LOWBAT:0x00 RSSI:0x27) (,WAKEMEUP,RPTEN)
2013.01.04 09:09:07.458 1: CUNO_HM: A0C45867019E0D700000000D041 -75.5
2013.01.04 09:09:07.473 1: RCV L:0C N:45 F:86 CMD:70 SRC:ThermostatBad DST:broadcast 00D041 (WeatherEvent TEMP:0x00D0 HUM:0x41) (,WAKEMEUP,CFG,RPTEN)
2013.01.04 09:09:36.378 1: CUNO_HM: A0C8B867019E0AA00000000C33B -89
2013.01.04 09:09:36.395 1: RCV L:0C N:8B F:86 CMD:70 SRC:ThermostatSchlaf DST:broadcast 00C33B (WeatherEvent TEMP:0x00C3 HUM:0x3B) (,WAKEMEUP,CFG,RPTEN)
2013.01.04 09:09:36.530 1: CUNO_HM: A0B45A25819E0D719DA380000 -75.5
2013.01.04 09:09:36.544 1: RCV L:0B N:45 F:A2 CMD:58 SRC:ThermostatBad DST:Heizkorper_Bad 0000 (ClimateEvent CMD:0x00 ValvePos:0x00) (,WAKEMEUP,BIDI,RPTEN)
2013.01.04 09:09:36.671 1: CUNO_HM: A0E45820219DA3819E0D7010100002B -65
2013.01.04 09:09:36.687 1: RCV L:0E N:45 F:82 CMD:02 SRC:Heizkorper_Bad DST:ThermostatBad 010100002B (ACK_STATUS CHANNEL:0x01 STATUS:0x00 UP:0x00 DOWN:0x00 LOWBAT:0x00 RSSI:0x2B) (,WAKEMEUP,RPTEN)
2013.01.04 09:09:45.748 1: CUNO_HM: A0B8BA25819E0AA19DA590000 -90.5
2013.01.04 09:09:45.764 1: RCV L:0B N:8B F:A2 CMD:58 SRC:ThermostatSchlaf DST:HeizkorperSch 0000 (ClimateEvent CMD:0x00 ValvePos:0x00) (,WAKEMEUP,BIDI,RPTEN)
2013.01.04 09:09:45.997 1: CUNO_HM: A0E8B820219DA5919E0AA0101000035 -60
2013.01.04 09:09:46.011 1: RCV L:0E N:8B F:82 CMD:02 SRC:HeizkorperSch DST:ThermostatSchlaf 0101000035  (ACK_STATUS CHANNEL:0x01 STATUS:0x00 UP:0x00 DOWN:0x00 LOWBAT:0x00 RSSI:0x35) (,WAKEMEUP,RPTEN)
Raspberry Pi2 als FHEM-Plattform
HM, FS20, 1-Wire, PanStamp,LW12,Intertechno,ESPEasy,Alexa

Offline martinp876

  • Moderator
  • Hero Member
  • ***
  • Beiträge: 10558
Aw: Rückmeldung an HM-PB-2-WM55
« Antwort #16 am: 05 Januar 2013, 14:11:45 »
Hallo Markus,

so schnell bin ich auch nicht, wie du siehst.
Was ich jetzt sehe ist, dass de Virtuelle Aktor prima toggelt und auch immer die acks schön sendet.
Habe es soeben noch einmal mit meiner RC12 probiert - da kommen die gleichen Messages und es wird immer grün. Prinzipiell funktioniert es also.
Mögliche Ursachen:
- dein eg_flur_schalter1 scheint die ACKs nicht zu erhalten oder nicht zu akzeptieren. Die Kommandos werden wiederholt
-- entweder ist der Empfang schlecht oder das ACK nicht korrekt.
==> test: mache doch einen devicepair mit einem ganz normalen Aktor und logge mit, was hier passiert. Dann kann ich den Vorgang untersuchen und ggf. nachbauen.
- das timing könnte zu knapp sein. Bei mir ist das timing identisch - aber evtl ist der WM langsamer? Auch hier sollte der Test Einsichten bringen.

- moeglich ist auch, dass ein anderes Ack 'gewünscht' ist -als kein ack-status.

Ich denke du kommst um einen test nicht herum.

Gruss
Martin







Offline Markus

  • Sr. Member
  • ****
  • Beiträge: 846
  • No support over PM! Please use the thread ...
Aw: Rückmeldung an HM-PB-2-WM55
« Antwort #17 am: 05 Januar 2013, 15:49:23 »
Hallo Markus,

so schnell bin ich auch nicht, wie du siehst.
Kein Problem ;-)
Was ich jetzt sehe ist, dass de Virtuelle Aktor prima toggelt und auch immer die acks schön sendet.
Also eg_flur_schalter1 ändert sich sofort bei Tastendruck Automatisch der Dummy Vact_1 ändert sich erst wen ich den Brauser aktualisiere. Aber das ist ein anderes Thema.
Habe es soeben noch einmal mit meiner RC12 probiert - da kommen die gleichen Messages und es wird immer grün. Prinzipiell funktioniert es also.
Mögliche Ursachen:
- dein eg_flur_schalter1 scheint die ACKs nicht zu erhalten oder nicht zu akzeptieren. Die Kommandos werden wiederholt
Manchmal Funktioniert es schon. so jedes zwanzigste mal.
-- entweder ist der Empfang schlecht oder das ACK nicht korrekt.
Ich sitze damit am Schreibtisch und der CUNO ist keine zwei Meter entfernt freie Sicht
==> test: mache doch einen devicepair mit einem ganz normalen Aktor und logge mit, was hier passiert. Dann kann ich den Vorgang untersuchen und ggf. nachbauen.
Ich hab nur noch die Dimmer Kann ich die nehmen?
- das timing könnte zu knapp sein. Bei mir ist das timing identisch - aber evtl ist der WM langsamer? Auch hier sollte der Test Einsichten bringen.
Wie mache ich das? Was brauchst du?
Reicht es wen ich den wm am Dimmer anlerne und dir wieder die Logdatei zukommen Lasse?
attr global mseclog 1
attr global verbose 1
attr <hmlan> hmProtocolEvents 1
attr <hmlan> loglevel 1


- moeglich ist auch, dass ein anderes Ack 'gewünscht' ist -als kein ack-status.

Ich denke du kommst um einen test nicht herum.

Gruss
Martin
Gruß Zurück
Raspberry Pi2 als FHEM-Plattform
HM, FS20, 1-Wire, PanStamp,LW12,Intertechno,ESPEasy,Alexa

Offline martinp876

  • Moderator
  • Hero Member
  • ***
  • Beiträge: 10558
Aw: Rückmeldung an HM-PB-2-WM55
« Antwort #18 am: 06 Januar 2013, 09:35:23 »
Hallo Markus,

ja, die logs reichen, wie du beschrieben hast.

Ein dimmer ist zum test prima. Pairen wie auch mit dem virtual device:

erst einmal die alten schalter entfernen (unpeeren)
set eg_flur_schalter1 devicepair 0 Vact_Btn1 single unset

set eg_flur_schalter1 devicepair 0 dimmer

jetzt solltest du den Dimmer steuern koennen

Gruss
Martin



Offline Markus

  • Sr. Member
  • ****
  • Beiträge: 846
  • No support over PM! Please use the thread ...
Aw: Rückmeldung an HM-PB-2-WM55
« Antwort #19 am: 08 Januar 2013, 21:36:56 »
Hallo Martin

Ich glaube mein taster ist Kaput. :-(

Ich kann ihn nicht an einen Dimmer Anlernen, es klapt einfach nicht!
Ich habe sogar beide aus fhem gelöscht und hab sie auf werkseinstellung zurückgesetzt.

fhem zeigt die beiden als gepairt an aber das stimt nicht.

Ich werte dann halt ohne Rückmeldung Leben müssen, Trotsdem Danke!!!

Gruß Markus
Raspberry Pi2 als FHEM-Plattform
HM, FS20, 1-Wire, PanStamp,LW12,Intertechno,ESPEasy,Alexa

Offline martinp876

  • Moderator
  • Hero Member
  • ***
  • Beiträge: 10558
Aw: Rückmeldung an HM-PB-2-WM55
« Antwort #20 am: 09 Januar 2013, 08:51:04 »
>>>Ich kann ihn nicht an einen Dimmer Anlernen, es klapt einfach nicht!

hast du über FHEM gepeert und auch das direkte peering von HM probiert?
Vorher ein reset der beiden devices?
Dann ist er wohl wirklich kaputt

Gruss
Martin